{"data":{"norad_id":49492,"epoch":"2026-05-25T04:46:17.833728Z","epoch_age_seconds":48045,"freshness":"FRESH","line1":"1 49492U 21107A   26145.19881752  .00005325  00000+0  22482-3 0  9993","line2":"2 49492  97.2101 190.2282 0009508 133.8037 226.3988 15.23636795251138","mean_motion":15.23636795,"eccentricity":0.0009508,"inclination_deg":97.2101,"raan_deg":190.2282,"arg_perigee_deg":133.8037,"mean_anomaly_deg":226.3988,"bstar":0.00022482,"rev_number":25113,"period_min":94.510713099443,"perigee_km":488.34706144093,"apogee_km":501.4167942341,"semimajor_km":6873.0189278375,"source":"CELESTRAK","updated_at":"2026-05-25T13:37:57.236524Z"}}